"Sample Date","Sample Time","Sample Value","Units","Flow Rate","Sample Interval","Number Channels","Micron Size 0","Counts/Channel 0","Micron Size 1","Counts/Channel 1","Micron Size 2","Counts/Channel 2","Micron Size 3","Counts/Channel 3","Micron Size 4","Counts/Channel 4","Micron Size 5","Counts/Channel 5","Micron Size 6","Counts/Channel 6","Micron Size 7","Counts/Channel 7","Micron Size 8","Counts/Channel 8","Micron Size 9","Counts/Channel 9","Micron Size 10","Counts/Channel 10","Micron Size 11","Counts/Channel 11","Micron Size 12","Counts/Channel 12","Micron Size 13","Counts/Channel 13","Micron Size 14","Counts/Channel 14","Micron Size 15","Counts/Channel 15","Micron Size 16","Counts/Channel 16","Micron Size 17","Counts/Channel 17","Micron Size 18","Counts/Channel 18","Micron Size 19","Counts/Channel 19","Micron Size 20","Counts/Channel 20","Micron Size 21","Counts/Channel 21","Micron Size 22","Counts/Channel 22","Micron Size 23","Counts/Channel 23","Micron Size 24","Counts/Channel 24","Micron Size 25","Counts/Channel 25","Micron Size 26","Counts/Channel 26","Micron Size 27","Counts/Channel 27","Micron Size 28","Counts/Channel 28","Micron Size 29","Counts/Channel 29","Micron Size 30","Counts/Channel 30","Micron Size 31","Counts/Channel 31"
"04/05/08","01:00:00",7363.000,"cc",28307.311,6.00,6,0.100,6478.000,0.200,504.000,0.300,162.000,0.500,176.000,1.000,43.000,5.000,0
"04/05/08","01:00:06",7309.000,"cc",28344.502,6.00,6,0.100,6508.000,0.200,469.000,0.300,141.000,0.500,153.000,1.000,38.000,5.000,0
"04/05/08","01:00:12",7381.000,"cc",28339.574,6.00,6,0.100,6569.000,0.200,437.000,0.300,155.000,0.500,181.000,1.000,39.000,5.000,0
"04/05/08","01:00:18",7594.000,"cc",28283.729,6.00,6,0.100,6671.000,0.200,497.000,0.300,171.000,0.500,201.000,1.000,54.000,5.000,0
"04/05/08","01:00:24",7514.000,"cc",28284.766,6.00,6,0.100,6664.000,0.200,454.000,0.300,177.000,0.500,171.000,1.000,48.000,5.000,0
"04/05/08","01:00:30",7530.000,"cc",28310.836,6.00,6,0.100,6695.000,0.200,473.000,0.300,159.000,0.500,156.000,1.000,47.000,5.000,0
"04/05/08","01:00:36",7393.000,"cc",28317.221,6.00,6,0.100,6530.000,0.200,470.000,0.300,153.000,0.500,188.000,1.000,52.000,5.000,0
"04/05/08","01:00:42",7433.000,"cc",28340.928,6.00,6,0.100,6624.000,0.200,471.000,0.300,138.000,0.500,155.000,1.000,45.000,5.000,0
"04/05/08","01:00:49",7412.000,"cc",28259.441,6.00,6,0.100,6560.000,0.200,480.000,0.300,157.000,0.500,168.000,1.000,47.000,5.000,0
"04/05/08","01:00:55",7266.000,"cc",28347.361,6.00,6,0.100,6418.000,0.200,480.000,0.300,135.000,0.500,177.000,1.000,56.000,5.000,0
"04/05/08","01:01:01",7325.000,"cc",28320.613,6.00,6,0.100,6444.000,0.200,493.000,0.300,165.000,0.500,182.000,1.000,41.000,5.000,0
"04/05/08","01:01:07",7465.000,"cc",28334.545,6.00,6,0.100,6664.000,0.200,448.000,0.300,141.000,0.500,179.000,1.000,33.000,5.000,0
"04/05/08","01:01:13",7159.000,"cc",28342.664,6.00,6,0.100,6347.000,0.200,454.000,0.300,153.000,0.500,157.000,1.000,48.000,5.000,0
"04/05/08","01:01:19",7183.000,"cc",28271.891,6.00,6,0.100,6406.000,0.200,438.000,0.300,134.000,0.500,154.000,1.000,51.000,5.000,0
"04/05/08","01:01:25",7207.000,"cc",28354.994,6.00,6,0.100,6407.000,0.200,476.000,0.300,128.000,0.500,159.000,1.000,37.000,5.000,0
"04/05/08","01:01:31",7412.000,"cc",28344.135,6.00,6,0.100,6618.000,0.200,463.000,0.300,126.000,0.500,165.000,1.000,40.000,5.000,0
"04/05/08","01:01:37",7298.000,"cc",28288.070,6.00,6,0.100,6465.000,0.200,465.000,0.300,142.000,0.500,178.000,1.000,48.000,5.000,0
"04/05/08","01:01:43",7347.000,"cc",28374.180,6.00,6,0.100,6488.000,0.200,471.000,0.300,168.000,0.500,163.000,1.000,57.000,5.000,0
"04/05/08","01:01:49",7509.000,"cc",28294.430,6.00,6,0.100,6628.000,0.200,486.000,0.300,171.000,0.500,176.000,1.000,48.000,5.000,0
"04/05/08","01:01:55",7453.000,"cc",28379.604,6.00,6,0.100,6548.000,0.200,504.000,0.300,166.000,0.500,179.000,1.000,56.000,5.000,0
"04/05/08","01:02:01",7470.000,"cc",28306.502,6.00,6,0.100,6676.000,0.200,471.000,0.300,118.000,0.500,157.000,1.000,48.000,5.000,0
"04/05/08","01:02:07",7225.000,"cc",28243.238,6.00,6,0.100,6399.000,0.200,474.000,0.300,150.000,0.500,148.000,1.000,54.000,5.000,0
"04/05/08","01:02:13",7480.000,"cc",28306.713,6.00,6,0.100,6617.000,0.200,482.000,0.300,157.000,0.500,173.000,1.000,51.000,5.000,0
"04/05/08","01:02:19",7560.000,"cc",28318.600,6.00,6,0.100,6676.000,0.200,519.000,0.300,154.000,0.500,164.000,1.000,47.000,5.000,0
"04/05/08","01:02:25",7352.000,"cc",28319.518,6.00,6,0.100,6515.000,0.200,466.000,0.300,163.000,0.500,169.000,1.000,39.000,5.000,0
"04/05/08","01:02:31",7192.000,"cc",28356.297,6.00,6,0.100,6332.000,0.200,494.000,0.300,155.000,0.500,173.000,1.000,38.000,5.000,0
"04/05/08","01:02:37",7087.000,"cc",28393.086,6.00,6,0.100,6280.000,0.200,466.000,0.300,160.000,0.500,137.000,1.000,44.000,5.000,0
"04/05/08","01:02:43",7200.000,"cc",28333.930,6.00,6,0.100,6301.000,0.200,520.000,0.300,178.000,0.500,156.000,1.000,45.000,5.000,0
"04/05/08","01:02:49",6959.000,"cc",28278.477,6.00,6,0.100,6172.000,0.200,441.000,0.300,151.000,0.500,152.000,1.000,43.000,5.000,0
"04/05/08","01:02:55",7252.000,"cc",28289.613,6.00,6,0.100,6421.000,0.200,445.000,0.300,162.000,0.500,180.000,1.000,44.000,5.000,0
"04/05/08","01:03:01",7445.000,"cc",28288.168,6.00,6,0.100,6563.000,0.200,494.000,0.300,154.000,0.500,176.000,1.000,58.000,5.000,0
"04/05/08","01:03:07",7321.000,"cc",28302.496,6.00,6,0.100,6503.000,0.200,483.000,0.300,151.000,0.500,137.000,1.000,47.000,5.000,0
"04/05/08","01:03:13",7325.000,"cc",28342.125,6.00,6,0.100,6456.000,0.200,488.000,0.300,177.000,0.500,161.000,1.000,43.000,5.000,0
"04/05/08","01:03:19",7399.000,"cc",28302.127,6.00,6,0.100,6510.000,0.200,516.000,0.300,167.000,0.500,156.000,1.000,50.000,5.000,0
"04/05/08","01:03:25",7480.000,"cc",28315.106,6.00,6,0.100,6557.000,0.200,514.000,0.300,182.000,0.500,174.000,1.000,53.000,5.000,0
"04/05/08","01:03:31",7379.000,"cc",28280.795,6.00,6,0.100,6474.000,0.200,489.000,0.300,172.000,0.500,183.000,1.000,61.000,5.000,0
"04/05/08","01:03:37",7409.000,"cc",28314.578,6.00,6,0.100,6543.000,0.200,468.000,0.300,174.000,0.500,168.000,1.000,56.000,5.000,0
"04/05/08","01:03:43",7246.000,"cc",28354.115,6.00,6,0.100,6408.000,0.200,475.000,0.300,154.000,0.500,163.000,1.000,46.000,5.000,0
"04/05/08","01:03:49",7354.000,"cc",28327.217,6.00,6,0.100,6520.000,0.200,440.000,0.300,187.000,0.500,159.000,1.000,48.000,5.000,0
"04/05/08","01:03:55",7366.000,"cc",28283.272,6.00,6,0.100,6487.000,0.200,497.000,0.300,161.000,0.500,160.000,1.000,61.000,5.000,0
"04/05/08","01:04:01",7354.000,"cc",28381.148,6.00,6,0.100,6537.000,0.200,441.000,0.300,156.000,0.500,177.000,1.000,43.000,5.000,0
"04/05/08","01:04:07",7276.000,"cc",28362.680,6.00,6,0.100,6420.000,0.200,467.000,0.300,173.000,0.500,161.000,1.000,55.000,5.000,0
"04/05/08","01:04:13",7436.000,"cc",28260.369,6.00,6,0.100,6563.000,0.200,484.000,0.300,166.000,0.500,177.000,1.000,46.000,5.000,0
"04/05/08","01:04:19",7585.000,"cc",28232.022,6.00,6,0.100,6681.000,0.200,456.000,0.300,194.000,0.500,204.000,1.000,50.000,5.000,0
"04/05/08","01:04:25",7362.000,"cc",28357.211,6.00,6,0.100,6518.000,0.200,463.000,0.300,160.000,0.500,173.000,1.000,48.000,5.000,0
"04/05/08","01:04:31",7546.000,"cc",28376.072,6.00,6,0.100,6657.000,0.200,507.000,0.300,169.000,0.500,171.000,1.000,41.000,5.000,1.000
"04/05/08","01:04:37",7537.000,"cc",28289.648,6.00,6,0.100,6620.000,0.200,512.000,0.300,167.000,0.500,188.000,1.000,50.000,5.000,0
"04/05/08","01:04:43",7369.000,"cc",28328.633,6.00,6,0.100,6561.000,0.200,449.000,0.300,162.000,0.500,157.000,1.000,40.000,5.000,0
"04/05/08","01:04:49",7352.000,"cc",28325.660,6.00,6,0.100,6477.000,0.200,502.000,0.300,158.000,0.500,177.000,1.000,38.000,5.000,0
"04/05/08","01:04:55",7361.000,"cc",28268.301,6.00,6,0.100,6490.000,0.200,504.000,0.300,154.000,0.500,174.000,1.000,39.000,5.000,0
"04/05/08","01:05:01",7460.000,"cc",28294.576,6.00,6,0.100,6514.000,0.200,517.000,0.300,163.000,0.500,211.000,1.000,55.000,5.000,0
"04/05/08","01:05:07",7627.000,"cc",28289.080,6.00,6,0.100,6764.000,0.200,502.000,0.300,152.000,0.500,152.000,1.000,57.000,5.000,0
"04/05/08","01:05:13",7478.000,"cc",28386.231,6.00,6,0.100,6580.000,0.200,510.000,0.300,163.000,0.500,179.000,1.000,46.000,5.000,0
"04/05/08","01:05:19",7509.000,"cc",28287.721,6.00,6,0.100,6612.000,0.200,499.000,0.300,180.000,0.500,178.000,1.000,39.000,5.000,1.000
"04/05/08","01:05:25",7677.000,"cc",28337.299,6.00,6,0.100,6752.000,0.200,528.000,0.300,153.000,0.500,195.000,1.000,49.000,5.000,0
"04/05/08","01:05:31",7553.000,"cc",28278.707,6.00,6,0.100,6656.000,0.200,497.000,0.300,175.000,0.500,164.000,1.000,61.000,5.000,0
"04/05/08","01:05:37",7387.000,"cc",28377.137,6.00,6,0.100,6523.000,0.200,486.000,0.300,144.000,0.500,195.000,1.000,39.000,5.000,0
"04/05/08","01:05:43",7501.000,"cc",28268.383,6.00,6,0.100,6632.000,0.200,466.000,0.300,173.000,0.500,179.000,1.000,51.000,5.000,0
"04/05/08","01:05:49",7599.000,"cc",28378.389,6.00,6,0.100,6672.000,0.200,518.000,0.300,209.000,0.500,164.000,1.000,36.000,5.000,0
"04/05/08","01:05:55",7345.000,"cc",28334.141,6.00,6,0.100,6490.000,0.200,440.000,0.300,182.000,0.500,183.000,1.000,50.000,5.000,0
"04/05/08","01:06:01",7667.000,"cc",28294.219,6.00,6,0.100,6725.000,0.200,541.000,0.300,162.000,0.500,182.000,1.000,57.000,5.000,0
"04/05/08","01:06:07",7838.000,"cc",28313.311,6.00,6,0.100,6910.000,0.200,497.000,0.300,171.000,0.500,199.000,1.000,61.000,5.000,0
"04/05/08","01:06:13",7966.000,"cc",28314.861,6.00,6,0.100,7014.000,0.200,525.000,0.300,193.000,0.500,191.000,1.000,43.000,5.000,0
"04/05/08","01:06:19",7759.000,"cc",28324.891,6.00,6,0.100,6778.000,0.200,513.000,0.300,164.000,0.500,236.000,1.000,68.000,5.000,0
"04/05/08","01:06:25",7761.000,"cc",28318.346,6.00,6,0.100,6813.000,0.200,535.000,0.300,160.000,0.500,195.000,1.000,58.000,5.000,0
"04/05/08","01:06:31",7790.000,"cc",28304.481,6.00,6,0.100,6830.000,0.200,515.000,0.300,200.000,0.500,190.000,1.000,55.000,5.000,0
"04/05/08","01:06:37",7896.000,"cc",28320.164,6.00,6,0.100,6967.000,0.200,505.000,0.300,179.000,0.500,203.000,1.000,42.000,5.000,0
"04/05/08","01:06:43",7803.000,"cc",28325.908,6.00,6,0.100,6869.000,0.200,495.000,0.300,191.000,0.500,195.000,1.000,53.000,5.000,0
"04/05/08","01:06:49",7916.000,"cc",28348.881,6.00,6,0.100,6898.000,0.200,579.000,0.300,191.000,0.500,199.000,1.000,49.000,5.000,0
"04/05/08","01:06:55",7845.000,"cc",28392.018,6.00,6,0.100,6853.000,0.200,570.000,0.300,162.000,0.500,196.000,1.000,64.000,5.000,0
"04/05/08","01:07:01",7780.000,"cc",28233.815,6.00,6,0.100,6787.000,0.200,540.000,0.300,186.000,0.500,210.000,1.000,57.000,5.000,0
"04/05/08","01:07:07",7631.000,"cc",28318.815,6.00,6,0.100,6694.000,0.200,494.000,0.300,177.000,0.500,224.000,1.000,42.000,5.000,0
"04/05/08","01:07:13",7935.000,"cc",28318.281,6.00,6,0.100,7014.000,0.200,523.000,0.300,179.000,0.500,171.000,1.000,48.000,5.000,0
"04/05/08","01:07:19",7832.000,"cc",28303.885,6.00,6,0.100,6955.000,0.200,480.000,0.300,183.000,0.500,171.000,1.000,43.000,5.000,0
"04/05/08","01:07:25",7834.000,"cc",28232.449,6.00,6,0.100,6882.000,0.200,535.000,0.300,169.000,0.500,198.000,1.000,50.000,5.000,0
"04/05/08","01:07:31",7909.000,"cc",28370.361,6.00,6,0.100,6933.000,0.200,525.000,0.300,195.000,0.500,197.000,1.000,59.000,5.000,0
"04/05/08","01:07:37",7831.000,"cc",28283.893,6.00,6,0.100,6901.000,0.200,488.000,0.300,203.000,0.500,189.000,1.000,50.000,5.000,0
"04/05/08","01:07:43",7948.000,"cc",28321.256,6.00,6,0.100,6976.000,0.200,537.000,0.300,191.000,0.500,194.000,1.000,50.000,5.000,0
"04/05/08","01:07:49",8156.000,"cc",28267.008,6.00,6,0.100,7150.000,0.200,528.000,0.300,208.000,0.500,219.000,1.000,51.000,5.000,0
"04/05/08","01:07:55",8000.000,"cc",28367.484,6.00,6,0.100,7045.000,0.200,530.000,0.300,194.000,0.500,177.000,1.000,54.000,5.000,0
"04/05/08","01:08:01",8000.000,"cc",28342.299,6.00,6,0.100,7034.000,0.200,520.000,0.300,179.000,0.500,203.000,1.000,64.000,5.000,0
"04/05/08","01:08:07",7954.000,"cc",28309.541,6.00,6,0.100,7033.000,0.200,499.000,0.300,184.000,0.500,184.000,1.000,54.000,5.000,0
"04/05/08","01:08:13",8198.000,"cc",28299.742,6.00,6,0.100,7253.000,0.200,530.000,0.300,184.000,0.500,175.000,1.000,56.000,5.000,0
"04/05/08","01:08:19",7976.000,"cc",28359.315,6.00,6,0.100,7006.000,0.200,536.000,0.300,177.000,0.500,210.000,1.000,47.000,5.000,0
"04/05/08","01:08:25",7921.000,"cc",28330.867,6.00,6,0.100,6928.000,0.200,583.000,0.300,191.000,0.500,175.000,1.000,44.000,5.000,0
"04/05/08","01:08:31",8138.000,"cc",28311.627,6.00,6,0.100,7078.000,0.200,566.000,0.300,206.000,0.500,232.000,1.000,56.000,5.000,0
"04/05/08","01:08:37",8182.000,"cc",28278.139,6.00,6,0.100,7216.000,0.200,521.000,0.300,204.000,0.500,193.000,1.000,48.000,5.000,0
"04/05/08","01:08:43",8161.000,"cc",28283.203,6.00,6,0.100,7152.000,0.200,540.000,0.300,191.000,0.500,221.000,1.000,57.000,5.000,0
"04/05/08","01:08:49",8156.000,"cc",28341.160,6.00,6,0.100,7151.000,0.200,561.000,0.300,178.000,0.500,219.000,1.000,47.000,5.000,0
"04/05/08","01:08:55",8029.000,"cc",28310.893,6.00,6,0.100,7111.000,0.200,493.000,0.300,193.000,0.500,190.000,1.000,42.000,5.000,0
"04/05/08","01:09:01",8102.000,"cc",28339.186,6.00,6,0.100,7122.000,0.200,522.000,0.300,197.000,0.500,192.000,1.000,69.000,5.000,0
"04/05/08","01:09:07",7954.000,"cc",28378.004,6.00,6,0.100,6985.000,0.200,569.000,0.300,177.000,0.500,176.000,1.000,47.000,5.000,0
"04/05/08","01:09:13",8082.000,"cc",28301.783,6.00,6,0.100,7149.000,0.200,516.000,0.300,180.000,0.500,197.000,1.000,40.000,5.000,0
"04/05/08","01:09:19",8173.000,"cc",28248.924,6.00,6,0.100,7188.000,0.200,550.000,0.300,203.000,0.500,195.000,1.000,37.000,5.000,0
"04/05/08","01:09:25",8071.000,"cc",28289.881,6.00,6,0.100,7113.000,0.200,553.000,0.300,182.000,0.500,177.000,1.000,46.000,5.000,0
"04/05/08","01:09:31",7963.000,"cc",28365.027,6.00,6,0.100,7058.000,0.200,490.000,0.300,174.000,0.500,203.000,1.000,38.000,5.000,0
"04/05/08","01:09:37",8015.000,"cc",28371.865,6.00,6,0.100,7018.000,0.200,575.000,0.300,192.000,0.500,193.000,1.000,37.000,5.000,0
"04/05/08","01:09:43",8236.000,"cc",28344.098,6.00,6,0.100,7279.000,0.200,550.000,0.300,166.000,0.500,207.000,1.000,34.000,5.000,0
"04/05/08","01:09:49",8259.000,"cc",28290.742,6.00,6,0.100,7266.000,0.200,534.000,0.300,200.000,0.500,207.000,1.000,52.000,5.000,0
"04/05/08","01:09:55",8005.000,"cc",28269.383,6.00,6,0.100,7022.000,0.200,555.000,0.300,178.000,0.500,211.000,1.000,39.000,5.000,0
"04/05/08","01:10:01",8353.000,"cc",28294.945,6.00,6,0.100,7335.000,0.200,562.000,0.300,192.000,0.500,214.000,1.000,50.000,5.000,0
"04/05/08","01:10:07",8225.000,"cc",28292.240,6.00,6,0.100,7192.000,0.200,563.000,0.300,185.000,0.500,233.000,1.000,52.000,5.000,0
"04/05/08","01:10:13",8309.000,"cc",28365.063,6.00,6,0.100,7266.000,0.200,579.000,0.300,206.000,0.500,214.000,1.000,44.000,5.000,0
"04/05/08","01:10:19",8203.000,"cc",28308.688,6.00,6,0.100,7218.000,0.200,560.000,0.300,191.000,0.500,193.000,1.000,41.000,5.000,0
"04/05/08","01:10:25",8359.000,"cc",28318.740,6.00,6,0.100,7381.000,0.200,525.000,0.300,191.000,0.500,202.000,1.000,60.000,5.000,0
"04/05/08","01:10:31",8243.000,"cc",28279.975,6.00,6,0.100,7276.000,0.200,517.000,0.300,192.000,0.500,225.000,1.000,33.000,5.000,0
"04/05/08","01:10:37",8217.000,"cc",28334.225,6.00,6,0.100,7174.000,0.200,620.000,0.300,182.000,0.500,189.000,1.000,52.000,5.000,0
"04/05/08","01:10:43",8003.000,"cc",28306.498,6.00,6,0.100,7020.000,0.200,536.000,0.300,204.000,0.500,189.000,1.000,54.000,5.000,0
"04/05/08","01:10:49",8233.000,"cc",28351.258,6.00,6,0.100,7253.000,0.200,545.000,0.300,192.000,0.500,200.000,1.000,43.000,5.000,0
"04/05/08","01:10:55",8053.000,"cc",28360.535,6.00,6,0.100,7146.000,0.200,489.000,0.300,184.000,0.500,186.000,1.000,48.000,5.000,0
"04/05/08","01:11:01",8271.000,"cc",28284.277,6.00,6,0.100,7243.000,0.200,566.000,0.300,211.000,0.500,211.000,1.000,40.000,5.000,0
"04/05/08","01:11:07",8141.000,"cc",28371.033,6.00,6,0.100,7148.000,0.200,562.000,0.300,191.000,0.500,204.000,1.000,36.000,5.000,0
"04/05/08","01:11:13",7984.000,"cc",28295.338,6.00,6,0.100,7034.000,0.200,524.000,0.300,179.000,0.500,198.000,1.000,49.000,5.000,0
"04/05/08","01:11:19",8236.000,"cc",28200.213,6.00,6,0.100,7259.000,0.200,528.000,0.300,204.000,0.500,205.000,1.000,40.000,5.000,0
"04/05/08","01:11:25",8181.000,"cc",28335.791,6.00,6,0.100,7251.000,0.200,526.000,0.300,179.000,0.500,184.000,1.000,41.000,5.000,0
"04/05/08","01:11:31",8411.000,"cc",28290.248,6.00,6,0.100,7411.000,0.200,559.000,0.300,202.000,0.500,196.000,1.000,43.000,5.000,0
"04/05/08","01:11:37",8099.000,"cc",28332.299,6.00,6,0.100,7115.000,0.200,579.000,0.300,186.000,0.500,171.000,1.000,48.000,5.000,0
"04/05/08","01:11:43",8242.000,"cc",28335.088,6.00,6,0.100,7252.000,0.200,573.000,0.300,189.000,0.500,190.000,1.000,38.000,5.000,0
"04/05/08","01:11:49",8436.000,"cc",28336.666,6.00,6,0.100,7414.000,0.200,561.000,0.300,208.000,0.500,215.000,1.000,38.000,5.000,0
"04/05/08","01:11:55",8290.000,"cc",28318.719,6.00,6,0.100,7292.000,0.200,540.000,0.300,228.000,0.500,193.000,1.000,37.000,5.000,0
"04/05/08","01:12:01",8219.000,"cc",28295.668,6.00,6,0.100,7278.000,0.200,511.000,0.300,178.000,0.500,202.000,1.000,50.000,5.000,0
"04/05/08","01:12:07",8232.000,"cc",28348.305,6.00,6,0.100,7245.000,0.200,560.000,0.300,189.000,0.500,197.000,1.000,41.000,5.000,0
"04/05/08","01:12:13",8039.000,"cc",28300.826,6.00,6,0.100,7073.000,0.200,529.000,0.300,182.000,0.500,207.000,1.000,48.000,5.000,0
"04/05/08","01:12:19",8235.000,"cc",28281.172,6.00,6,0.100,7285.000,0.200,529.000,0.300,195.000,0.500,183.000,1.000,43.000,5.000,0
"04/05/08","01:12:25",8208.000,"cc",28337.188,6.00,6,0.100,7252.000,0.200,560.000,0.300,173.000,0.500,183.000,1.000,40.000,5.000,0
"04/05/08","01:12:31",8294.000,"cc",28274.148,6.00,6,0.100,7289.000,0.200,572.000,0.300,208.000,0.500,186.000,1.000,39.000,5.000,0
"04/05/08","01:12:37",8336.000,"cc",28357.070,6.00,6,0.100,7356.000,0.200,557.000,0.300,170.000,0.500,207.000,1.000,46.000,5.000,0
"04/05/08","01:12:43",8199.000,"cc",28318.633,6.00,6,0.100,7213.000,0.200,558.000,0.300,201.000,0.500,187.000,1.000,40.000,5.000,0
"04/05/08","01:12:49",8346.000,"cc",28346.363,6.00,6,0.100,7353.000,0.200,571.000,0.300,195.000,0.500,191.000,1.000,36.000,5.000,0
"04/05/08","01:12:55",8137.000,"cc",28380.953,6.00,6,0.100,7182.000,0.200,506.000,0.300,218.000,0.500,186.000,1.000,45.000,5.000,0
"04/05/08","01:13:01",8279.000,"cc",28312.940,6.00,6,0.100,7276.000,0.200,567.000,0.300,194.000,0.500,208.000,1.000,34.000,5.000,0
"04/05/08","01:13:07",8058.000,"cc",28283.736,6.00,6,0.100,7069.000,0.200,569.000,0.300,187.000,0.500,195.000,1.000,38.000,5.000,0
"04/05/08","01:13:13",8107.000,"cc",28312.371,6.00,6,0.100,7234.000,0.200,494.000,0.300,172.000,0.500,177.000,1.000,30.000,5.000,0
"04/05/08","01:13:19",8104.000,"cc",28289.137,6.00,6,0.100,7156.000,0.200,528.000,0.300,194.000,0.500,182.000,1.000,44.000,5.000,0
"04/05/08","01:13:25",8086.000,"cc",28324.479,6.00,6,0.100,7115.000,0.200,561.000,0.300,176.000,0.500,197.000,1.000,37.000,5.000,0
"04/05/08","01:13:31",8042.000,"cc",28333.922,6.00,6,0.100,7093.000,0.200,544.000,0.300,186.000,0.500,172.000,1.000,47.000,5.000,0
"04/05/08","01:13:37",7842.000,"cc",28351.850,6.00,6,0.100,6955.000,0.200,498.000,0.300,179.000,0.500,174.000,1.000,36.000,5.000,0
"04/05/08","01:13:43",7919.000,"cc",28374.994,6.00,6,0.100,7071.000,0.200,493.000,0.300,166.000,0.500,157.000,1.000,32.000,5.000,0
"04/05/08","01:13:49",7750.000,"cc",28275.889,6.00,6,0.100,6887.000,0.200,514.000,0.300,151.000,0.500,159.000,1.000,39.000,5.000,0
"04/05/08","01:13:55",7604.000,"cc",28291.600,6.00,6,0.100,6807.000,0.200,447.000,0.300,151.000,0.500,165.000,1.000,34.000,5.000,0
"04/05/08","01:14:01",7791.000,"cc",28243.111,6.00,6,0.100,6897.000,0.200,540.000,0.300,174.000,0.500,149.000,1.000,31.000,5.000,0
"04/05/08","01:14:07",7762.000,"cc",28268.836,6.00,6,0.100,6903.000,0.200,503.000,0.300,164.000,0.500,160.000,1.000,32.000,5.000,0
"04/05/08","01:14:13",7811.000,"cc",28325.951,6.00,6,0.100,6880.000,0.200,519.000,0.300,204.000,0.500,167.000,1.000,41.000,5.000,0
"04/05/08","01:14:19",7807.000,"cc",28363.539,6.00,6,0.100,6950.000,0.200,501.000,0.300,163.000,0.500,167.000,1.000,26.000,5.000,0
"04/05/08","01:14:25",7818.000,"cc",28293.443,6.00,6,0.100,6953.000,0.200,516.000,0.300,177.000,0.500,142.000,1.000,30.000,5.000,0
"04/05/08","01:14:31",7857.000,"cc",28353.885,6.00,6,0.100,6954.000,0.200,530.000,0.300,167.000,0.500,178.000,1.000,28.000,5.000,0
"04/05/08","01:14:37",7741.000,"cc",28292.623,6.00,6,0.100,6905.000,0.200,502.000,0.300,147.000,0.500,149.000,1.000,38.000,5.000,0
"04/05/08","01:14:43",7477.000,"cc",28344.311,6.00,6,0.100,6681.000,0.200,442.000,0.300,177.000,0.500,132.000,1.000,45.000,5.000,0
"04/05/08","01:14:49",7404.000,"cc",28342.975,6.00,6,0.100,6553.000,0.200,481.000,0.300,187.000,0.500,155.000,1.000,28.000,5.000,0
"04/05/08","01:14:55",7639.000,"cc",28339.822,6.00,6,0.100,6829.000,0.200,481.000,0.300,158.000,0.500,147.000,1.000,24.000,5.000,0
"04/05/08","01:15:01",7826.000,"cc",28301.377,6.00,6,0.100,6946.000,0.200,519.000,0.300,176.000,0.500,154.000,1.000,31.000,5.000,0
"04/05/08","01:15:07",7729.000,"cc",28248.984,6.00,6,0.100,6865.000,0.200,473.000,0.300,177.000,0.500,181.000,1.000,33.000,5.000,0
"04/05/08","01:15:13",7716.000,"cc",28303.490,6.00,6,0.100,6838.000,0.200,500.000,0.300,182.000,0.500,162.000,1.000,34.000,5.000,0
"04/05/08","01:15:19",7641.000,"cc",28299.531,6.00,6,0.100,6843.000,0.200,456.000,0.300,164.000,0.500,147.000,1.000,31.000,5.000,0
"04/05/08","01:15:25",7845.000,"cc",28395.201,6.00,6,0.100,6949.000,0.200,531.000,0.300,175.000,0.500,154.000,1.000,36.000,5.000,0
"04/05/08","01:15:31",7872.000,"cc",28305.482,6.00,6,0.100,7034.000,0.200,495.000,0.300,156.000,0.500,157.000,1.000,30.000,5.000,0
"04/05/08","01:15:37",7913.000,"cc",28305.098,6.00,6,0.100,7062.000,0.200,491.000,0.300,159.000,0.500,180.000,1.000,21.000,5.000,0
"04/05/08","01:15:43",7826.000,"cc",28295.018,6.00,6,0.100,6973.000,0.200,472.000,0.300,190.000,0.500,158.000,1.000,33.000,5.000,0
"04/05/08","01:15:49",7787.000,"cc",28307.022,6.00,6,0.100,6902.000,0.200,533.000,0.300,176.000,0.500,151.000,1.000,25.000,5.000,0
"04/05/08","01:15:55",7801.000,"cc",28383.109,6.00,6,0.100,6960.000,0.200,521.000,0.300,159.000,0.500,133.000,1.000,28.000,5.000,0
"04/05/08","01:16:01",7755.000,"cc",28258.246,6.00,6,0.100,6852.000,0.200,531.000,0.300,169.000,0.500,172.000,1.000,31.000,5.000,0
"04/05/08","01:16:07",7763.000,"cc",28266.068,6.00,6,0.100,6929.000,0.200,499.000,0.300,157.000,0.500,147.000,1.000,30.000,5.000,1.000
"04/05/08","01:16:13",7773.000,"cc",28373.094,6.00,6,0.100,6946.000,0.200,494.000,0.300,161.000,0.500,140.000,1.000,32.000,5.000,0
"04/05/08","01:16:19",7573.000,"cc",28328.272,6.00,6,0.100,6737.000,0.200,484.000,0.300,175.000,0.500,142.000,1.000,35.000,5.000,0
"04/05/08","01:16:25",7353.000,"cc",28328.055,6.00,6,0.100,6596.000,0.200,446.000,0.300,152.000,0.500,128.000,1.000,31.000,5.000,0
"04/05/08","01:16:31",6762.000,"cc",28329.010,6.00,6,0.100,6079.000,0.200,418.000,0.300,119.000,0.500,116.000,1.000,30.000,5.000,0
"04/05/08","01:16:37",6970.000,"cc",28329.604,6.00,6,0.100,6215.000,0.200,428.000,0.300,165.000,0.500,134.000,1.000,28.000,5.000,0
"04/05/08","01:16:43",7366.000,"cc",28343.936,6.00,6,0.100,6585.000,0.200,489.000,0.300,138.000,0.500,133.000,1.000,21.000,5.000,0
"04/05/08","01:16:49",7427.000,"cc",28293.643,6.00,6,0.100,6676.000,0.200,453.000,0.300,148.000,0.500,122.000,1.000,28.000,5.000,0
"04/05/08","01:16:55",7157.000,"cc",28306.621,6.00,6,0.100,6432.000,0.200,441.000,0.300,146.000,0.500,113.000,1.000,25.000,5.000,0
"04/05/08","01:17:01",6977.000,"cc",28256.354,6.00,6,0.100,6280.000,0.200,416.000,0.300,135.000,0.500,121.000,1.000,25.000,5.000,0
"04/05/08","01:17:07",7224.000,"cc",28347.002,6.00,6,0.100,6455.000,0.200,459.000,0.300,149.000,0.500,129.000,1.000,32.000,5.000,0